(509275) = 2006 US253

Discovered at Kitt Peak on 2006-10-15 by Spacewatch.

Orbit

Orbit type: Main Belt

Note: WebGL enabled browser required.

epoch2022-01-21.0
epoch JD2459600.5
perihelion date2021-01-05.29580
perihelion JD2459219.79580
argument of perihelion (°)302.57109
ascending node (°)49.64847
inclination (°)2.49247
eccentricity0.2078312
perihelion distance (AU)1.8704202
Tisserand w.r.t. Jupiter3.5
ΔV w.r.t. Earth (km/sec)8.5
semimajor axis (AU)2.3611383
mean anomaly (°)103.42116
mean daily motion (°/day)0.27165750
aphelion distance (AU)2.852
period (years)3.63
P-vector [x]0.99018652
P-vector [y]-0.10915485
P-vector [z]-0.08726895
Q-vector [x]0.13576555
Q-vector [y]0.89942068
Q-vector [z]0.41546379
absolute magnitude18.46
phase slope0.15
uncertainty0
referenceMPO 701098
observations used65
oppositions5
arc length (days)4992
first opposition used2006
last opposition used2020
residual rms (arc-secs)0.47
perturbers coarse indicatorM-v
perturbers precise indicator003Ek
first observation date used2006-10-15.0
last observation date used2020-06-15.0
computer namePan
JD of orbit computation2458114.480873
perihelion JD uncertainty (days)6.6842E-05
argument of perihelion uncertainty (°)8.1548E-05
ascending node uncertainty (°)7.8428E-05
inclination uncertainty (°)5.7352E-06
eccentricity uncertainty 4.0390E-08
perihelion distance uncertainty (AU)9.6471E-08
Minimum Orbit Intersection Distances (in AU)
for orbit epoch: 2459200.5, reference: E2021-B25
Mercury1.49073
Venus1.14314
Earth0.86425
Mars0.48124
Jupiter2.57379
Saturn6.49144
Uranus15.4897
Neptune27.6952

Observations

65 total observations over interval: 2006 10 15.33529 – 2020 06 15.47818
These data are available for download (format description).

Date (UT) J2000 RA J2000 Dec Magn Location Ref
2006 10 15.33529 03 04 15.46 +16 04 00.6   691 – Steward Observatory, Kitt Peak-Spacewatch MPS 291501
2006 10 15.35270 03 04 14.66 +16 03 59.7   691 – Steward Observatory, Kitt Peak-Spacewatch MPS 291501
2006 10 15.37066 03 04 13.80 +16 03 57.7   691 – Steward Observatory, Kitt Peak-Spacewatch MPS 291501
2006 10 26.42522 02 54 34.33 +15 43 02.3 20.4 r 568 – Maunakea MPS 252746
2006 10 27.34444 02 53 39.44 +15 40 48.7 20.6 V G96 – Mt. Lemmon Survey MPS 185804
2006 10 27.35443 02 53 38.83 +15 40 47.3 20.0 V G96 – Mt. Lemmon Survey MPS 185804
2006 10 27.37444 02 53 37.60 +15 40 44.7 20.0 V G96 – Mt. Lemmon Survey MPS 185804
2006 10 27.46727 02 53 32.12 +15 40 33.5 20.3 r 568 – Maunakea MPS 252746
2006 10 27.51944 02 53 28.80 +15 40 25.9 20.4 r 568 – Maunakea MPS 252746
2006 10 27.56381 02 53 25.99 +15 40 19.0 20.3 r 568 – Maunakea MPS 252746
2006 10 28.32834 02 52 40.30 +15 38 26.0 20.3 V 691 – Steward Observatory, Kitt Peak-Spacewatch MPS 185804
2006 10 28.34575 02 52 39.21 +15 38 25.1 20.1 V 691 – Steward Observatory, Kitt Peak-Spacewatch MPS 185804
2006 10 28.36368 02 52 38.08 +15 38 21.1 20.8 V 691 – Steward Observatory, Kitt Peak-Spacewatch MPS 185804
2006 11 01.32730 02 48 34.23 +15 28 16.9 20.7 V 691 – Steward Observatory, Kitt Peak-Spacewatch MPS 185804
2006 11 01.34799 02 48 32.88 +15 28 13.7 20.5 V 691 – Steward Observatory, Kitt Peak-Spacewatch MPS 185804
2006 11 01.36532 02 48 31.74 +15 28 10.8 20.3 V 691 – Steward Observatory, Kitt Peak-Spacewatch MPS 185804
2006 11 11.29376 02 38 21.19 +15 01 55.3 19.8 V G96 – Mt. Lemmon Survey MPS 291501
2006 11 11.29837 02 38 20.94 +15 01 54.7 20.1 V G96 – Mt. Lemmon Survey MPS 291501
2006 11 11.30316 02 38 20.65 +15 01 54.0 20.1 V G96 – Mt. Lemmon Survey MPS 291501
2006 11 11.30787 02 38 20.32 +15 01 53.0 20.3 V G96 – Mt. Lemmon Survey MPS 291501
2006 11 21.17302 02 29 31.02 +14 39 26.8 20.5 V G96 – Mt. Lemmon Survey MPS 291501
2006 11 21.18190 02 29 30.58 +14 39 26.1 20.2 V G96 – Mt. Lemmon Survey MPS 291501
2006 11 21.19091 02 29 30.08 +14 39 24.9 20.6 V G96 – Mt. Lemmon Survey MPS 291501
2006 11 21.19990 02 29 29.65 +14 39 23.9 20.4 V G96 – Mt. Lemmon Survey MPS 291501
2013 08 07.17817 23 04 09.01 -11 20 56.5 20.2 R J04 – ESA Optical Ground Station, Tenerife MPS 476238
2013 08 07.18975 23 04 08.70 -11 20 58.9 20.5 R J04 – ESA Optical Ground Station, Tenerife MPS 476238
2013 08 07.21290 23 04 08.10 -11 21 02.8 18.5 R J04 – ESA Optical Ground Station, Tenerife MPS 476238
2013 08 10.34779 23 02 55.39 -11 32 26.5 20.8 V 691 – Steward Observatory, Kitt Peak-Spacewatch MPS 476238
2013 08 10.36549 23 02 54.86 -11 32 30.4 20.6 V 691 – Steward Observatory, Kitt Peak-Spacewatch MPS 476238
2013 08 10.38319 23 02 54.33 -11 32 34.0 20.5 V 691 – Steward Observatory, Kitt Peak-Spacewatch MPS 476238
2013 08 26.48571 22 52 34.556 -12 43 12.87 20.2 r F51 – Pan-STARRS 1, Haleakala MPS 476238
2013 08 26.50107 22 52 33.755 -12 43 16.95 19.8 i F51 – Pan-STARRS 1, Haleakala MPS 476238
2013 08 26.51339 22 52 33.125 -12 43 20.41 19.9 i F51 – Pan-STARRS 1, Haleakala MPS 476238
2016 05 07.44745 15 03 23.592 -17 08 27.82 21.3 w F51 – Pan-STARRS 1, Haleakala MPS 708319
2016 05 07.45855 15 03 22.851 -17 08 25.68 21.5 w F51 – Pan-STARRS 1, Haleakala MPS 708319
2016 05 07.46964 15 03 22.146 -17 08 23.41 21.1 w F51 – Pan-STARRS 1, Haleakala MPS 708319
2017 11 14.30626 04 29 31.10 +22 44 28.4 20.6 G G96 – Mt. Lemmon Survey MPS 842965
2017 11 14.31047 04 29 30.86 +22 44 28.4 20.2 G G96 – Mt. Lemmon Survey MPS 842965
2017 11 14.31467 04 29 30.54 +22 44 28.2 20.8 G G96 – Mt. Lemmon Survey MPS 842965
2017 11 14.31887 04 29 30.22 +22 44 28.4 20.5 G G96 – Mt. Lemmon Survey MPS 842965
2017 11 21.36681 04 21 40.623 +22 38 48.46 20.6 w F51 – Pan-STARRS 1, Haleakala MPS 839202
2017 11 21.37980 04 21 39.690 +22 38 47.78 20.7 w F51 – Pan-STARRS 1, Haleakala MPS 839202
2017 11 21.39292 04 21 38.752 +22 38 46.99 20.6 w F51 – Pan-STARRS 1, Haleakala MPS 839202
2017 11 21.40613 04 21 37.791 +22 38 46.19 20.5 w F51 – Pan-STARRS 1, Haleakala MPS 839202
2017 11 27.25264 04 14 51.65 +22 31 33.2 20.3 G G96 – Mt. Lemmon Survey MPS 842965
2017 11 27.25842 04 14 51.24 +22 31 32.5 20.4 G G96 – Mt. Lemmon Survey MPS 842965
2017 11 27.26650 04 14 50.67 +22 31 31.8 20.2 G G96 – Mt. Lemmon Survey MPS 842965
2017 11 27.27449 04 14 50.08 +22 31 31.3 20.2 G G96 – Mt. Lemmon Survey MPS 842965
2017 11 27.35484 04 14 44.28 +22 31 25.1 20.2 V 691 – Steward Observatory, Kitt Peak-Spacewatch MPS 842965
2017 11 27.37513 04 14 42.80 +22 31 23.2 20.5 V 691 – Steward Observatory, Kitt Peak-Spacewatch MPS 842965
2017 11 27.39542 04 14 41.33 +22 31 21.5 20.5 V 691 – Steward Observatory, Kitt Peak-Spacewatch MPS 842965
2017 12 10.28053 04 00 49.548 +22 11 24.19 20.9 w F51 – Pan-STARRS 1, Haleakala MPS 846008
2017 12 10.29289 04 00 48.800 +22 11 23.08 20.8 w F51 – Pan-STARRS 1, Haleakala MPS 846008
2017 12 10.30537 04 00 48.046 +22 11 21.93 20.8 w F51 – Pan-STARRS 1, Haleakala MPS 846008
2017 12 13.34617 03 58 00.11 +22 06 36.7 20.8 G G96 – Mt. Lemmon Survey MPS 846008
2017 12 13.36062 03 57 59.30 +22 06 35.2 21.1 G G96 – Mt. Lemmon Survey MPS 846008
2017 12 13.36783 03 57 58.92 +22 06 34.8 20.9 G G96 – Mt. Lemmon Survey MPS 846008
2017 12 26.15315 03 49 22.07 +21 51 09.1 21.9 G G96 – Mt. Lemmon Survey MPS 851526
2017 12 26.15827 03 49 21.92 +21 51 09.0 21.6 G G96 – Mt. Lemmon Survey MPS 851526
2017 12 26.16341 03 49 21.78 +21 51 09.0 21.7 G G96 – Mt. Lemmon Survey MPS 851526
2017 12 26.16853 03 49 21.62 +21 51 08.6 21.6 G G96 – Mt. Lemmon Survey MPS 851526
2020 06 15.44777 18 57 33.930 -26 01 38.89 21.0 w F51 – Pan-STARRS 1, Haleakala MPS 1204845
2020 06 15.45790 18 57 33.410 -26 01 40.80 20.9 w F51 – Pan-STARRS 1, Haleakala MPS 1204845
2020 06 15.46804 18 57 32.871 -26 01 42.70 21.1 w F51 – Pan-STARRS 1, Haleakala MPS 1204845
2020 06 15.47818 18 57 32.331 -26 01 44.51 21.2 w F51 – Pan-STARRS 1, Haleakala MPS 1204845